"SCET";"TARGET";"ELECTRON_DENSITY";"ERROR_FLAG";"ELECTRON_DENSITY_ERROR";"FREQ_FCE";"MEASURED_VALUE";"MEASURED_ITEM";"FREQ_PLASMA";"FREQ_UPPER_HYBRID";"FREQ_R_EQUALS_ZERO";"FREQ_L_EQUALS_ZERO";"ORBIT_NUMBER";"SATURN_RADIUS";"SATURN_IAU_LONGITUDE";"SATURN_SLS4_S_LONGITUDE";"SATURN_SLS4_N_LONGITUDE";"SATURN_SLS5_S_LONGITUDE";"SATURN_SLS5_N_LONGITUDE";"SATURN_LOCAL_TIME";"SATURN_KRONOGRAPHIC_LATITUDE";"SATURN_MAGNETIC_LATITUDE";"SATURN_L";"SATURN_L_OFFSET";"SATURN_SOLAR_EQUATORIAL_X";"SATURN_SOLAR_EQUATORIAL_Y";"SATURN_SOLAR_EQUATORIAL_Z";"SATURN_ALTITUDE";"ENCELADUS_ENCOUNTER_NUMBER";"ENCELADUS_RADIUS";"ENCELADUS_COROTATIONAL_X";"ENCELADUS_COROTATIONAL_Y";"ENCELADUS_COROTATIONAL_Z";"ENCELADUS_TRUE_ANOMALY";"ENCELADUS_PERIAPSIS_TIME";"JUPITER_RADIUS";"JUPITER_SYSTEMIII_LONGITUDE";"JUPITER_MAGNETIC_LATITUDE";"JUPITER_MAGNETIC_LOCAL_TIME";"JUPITER_L";"IO_PHASE";"EARTH_RADIUS";"EARTH_MAGNETIC_LATITUDE";"EARTH_LOCAL_TIME";"EARTH_L"
"[UTC]";"[0=Saturn, 1=Enceladus, 2=Jupiter, 3=Earth]";"[cm-3]";"[0=automated, 1=manual]";"[normalized density error]";"[Hz]";"[Hz]";"[0=upper hybrid frequency, 1=plasma frequency cutoff]";"[Hz]";"[Hz]";"[Hz]";"[Hz}";"[0, A, B, C, 3, 4, ... , 292, 293]";"[Rs where 1Rs=60268km]";"[degrees]";"[degrees]";"[degrees]";"[degrees]";"[degrees]";"[hours]";"[degrees]";"[degrees where offset=2293km north]";"[Rs where 1Rs=60268km]";"[Rs where 1Rs=60268km and offset=2293km north]";"[Rs where 1Rs=60268km]";"[Rs where 1Rs=60268km]";"[Rs where 1Rs=60268km]";"[km where ellipsoid a,b=60268km and c=54364km]";"[E0, E1, E2, ... , E21, E22]";"[Renc where 1Renc=252.1km]";"[Renc where 1Renc=252.1km]";"[Renc where 1Renc=252.1km]";"[Renc where 1Renc=252.1km]";"[degrees]";"[UTC]";"[Rj where 1Rj=71492km]";"[degrees]";"[degrees using JRM09 model]";"[hours using JRM09 model]";"[Rj where 1Rj=71492km]";"[degrees]";"[Re where 1Re=6378.1366km]";"[degrees]";"[hours]";"[Re where 1Re=6378.1366km]"
2010-12-01T00:00:30.435Z;0;5.0410e+00;0;     0.212;   518.140;  20168.592; 0;  20161.936;  20168.592;  20422.670;  19904.529;141;   9.583; 284.915;;;  51.696; 270.896;  13.721;   0.048;  -0.179;   9.583;   9.573;   8.627;   4.173;   0.008;;;;;;;;;;;;;;;;;;
2010-12-01T00:00:46.435Z;0;4.7020e+00;0;     0.166;   518.140;  19479.121; 0;  19472.229;  19479.121;  19733.021;  19214.883;141;   9.585; 285.054;;;  51.835; 271.035;  13.722;   0.048;  -0.179;   9.585;   9.575;   8.628;   4.176;   0.008;;;;;;;;;;;;;;;;;;
2010-12-01T00:01:34.434Z;0;5.1550e+00;0;     0.204;   518.476;  20395.887; 0;  20389.295;  20395.887;  20650.182;  20131.705;141;   9.591; 285.473;;;  52.251; 271.451;  13.724;   0.048;  -0.179;   9.591;   9.581;   8.631;   4.183;   0.008;;;;;;;;;;;;;;;;;;
2010-12-01T00:02:22.434Z;0;5.3580e+00;0;     0.235;   518.476;  20792.807; 0;  20786.342;  20792.807;  21047.195;  20528.721;141;   9.597; 285.891;;;  52.667; 271.867;  13.726;   0.048;  -0.179;   9.597;   9.587;   8.634;   4.191;   0.008;;;;;;;;;;;;;;;;;;
2010-12-01T00:02:54.434Z;0;5.0390e+00;0;     0.179;   518.476;  20164.393; 0;  20157.727;  20164.393;  20418.631;  19900.154;141;   9.601; 286.170;;;  52.944; 272.144;  13.727;   0.048;  -0.179;   9.601;   9.591;   8.636;   4.196;   0.008;;;;;;;;;;;;;;;;;;
2010-12-01T00:03:26.433Z;0;5.3510e+00;0;     0.208;   518.476;  20779.635; 0;  20773.166;  20779.635;  21034.021;  20515.545;141;   9.605; 286.449;;;  53.221; 272.421;  13.729;   0.048;  -0.179;   9.605;   9.596;   8.638;   4.201;   0.008;;;;;;;;;;;;;;;;;;
2010-12-01T00:03:42.433Z;0;6.1140e+00;0;     0.160;   512.568;  22209.965; 0;  22204.049;  22209.965;  22461.812;  21949.244;141;   9.607; 286.589;;;  53.360; 272.560;  13.730;   0.048;  -0.179;   9.607;   9.598;   8.639;   4.203;   0.008;;;;;;;;;;;;;;;;;;
2010-12-01T00:03:58.433Z;0;6.1180e+00;0;     0.176;   512.568;  22218.215; 0;  22212.301;  22218.215;  22470.064;  21957.496;141;   9.610; 286.728;;;  53.499; 272.699;  13.730;   0.048;  -0.179;   9.610;   9.600;   8.640;   4.206;   0.008;;;;;;;;;;;;;;;;;;
2010-12-01T00:04:14.433Z;0;6.0750e+00;0;     0.189;   512.568;  22140.301; 0;  22134.367;  22140.301;  22392.135;  21879.566;141;   9.612; 286.868;;;  53.638; 272.838;  13.731;   0.048;  -0.179;   9.612;   9.602;   8.641;   4.208;   0.008;;;;;;;;;;;;;;;;;;
2010-12-01T00:04:30.433Z;0;5.6810e+00;0;     0.172;   512.568;  21410.693; 0;  21404.557;  21410.693;  21662.375;  21149.807;141;   9.614; 287.007;;;  53.776; 272.976;  13.732;   0.048;  -0.178;   9.614;   9.604;   8.643;   4.211;   0.008;;;;;;;;;;;;;;;;;;
2010-12-01T00:04:46.433Z;0;6.0430e+00;0;     0.175;   512.568;  22080.365; 0;  22074.416;  22080.365;  22332.188;  21819.619;141;   9.616; 287.147;;;  53.915; 273.115;  13.732;   0.048;  -0.178;   9.616;   9.606;   8.644;   4.213;   0.008;;;;;;;;;;;;;;;;;;
2010-12-01T00:05:02.433Z;0;6.1270e+00;0;     0.173;   512.568;  22234.029; 0;  22228.121;  22234.029;  22485.881;  21973.314;141;   9.618; 287.286;;;  54.054; 273.254;  13.733;   0.048;  -0.178;   9.618;   9.608;   8.645;   4.216;   0.008;;;;;;;;;;;;;;;;;;
2010-12-01T00:05:18.433Z;0;5.7790e+00;0;     0.172;   512.568;  21592.688; 0;  21586.604;  21592.688;  21844.408;  21331.840;141;   9.620; 287.426;;;  54.192; 273.392;  13.734;   0.048;  -0.178;   9.620;   9.610;   8.646;   4.218;   0.008;;;;;;;;;;;;;;;;;;
2010-12-01T00:05:34.433Z;0;4.7270e+00;0;     0.209;   507.696;  19530.393; 0;  19523.793;  19530.393;  19779.291;  19271.596;141;   9.622; 287.565;;;  54.331; 273.531;  13.734;   0.048;  -0.178;   9.622;   9.612;   8.647;   4.221;   0.008;;;;;;;;;;;;;;;;;;
2010-12-01T00:06:06.432Z;0;4.6110e+00;0;     0.201;   507.696;  19289.289; 0;  19282.607;  19289.289;  19538.125;  19030.430;141;   9.626; 287.844;;;  54.609; 273.809;  13.736;   0.048;  -0.178;   9.626;   9.616;   8.649;   4.226;   0.008;;;;;;;;;;;;;;;;;;
2010-12-01T00:06:22.432Z;0;5.0920e+00;0;     0.165;   507.696;  20269.600; 0;  20263.240;  20269.600;  20518.678;  20010.982;141;   9.628; 287.984;;;  54.747; 273.947;  13.737;   0.048;  -0.178;   9.628;   9.618;   8.650;   4.228;   0.008;;;;;;;;;;;;;;;;;;
2010-12-01T00:06:54.432Z;0;5.1290e+00;0;     0.192;   507.696;  20342.732; 0;  20336.396;  20342.732;  20591.828;  20084.133;141;   9.632; 288.263;;;  55.025; 274.225;  13.738;   0.048;  -0.178;   9.632;   9.622;   8.652;   4.233;   0.008;;;;;;;;;;;;;;;;;;
2010-12-01T00:07:10.432Z;0;5.2100e+00;0;     0.194;   507.696;  20503.367; 0;  20497.080;  20503.367;  20752.500;  20244.805;141;   9.634; 288.402;;;  55.164; 274.364;  13.739;   0.048;  -0.178;   9.634;   9.624;   8.653;   4.236;   0.008;;;;;;;;;;;;;;;;;;
2010-12-01T00:07:26.432Z;0;5.2340e+00;0;     0.181;   507.696;  20550.902; 0;  20544.631;  20550.902;  20800.047;  20292.350;141;   9.636; 288.542;;;  55.302; 274.502;  13.739;   0.048;  -0.178;   9.636;   9.626;   8.654;   4.238;   0.008;;;;;;;;;;;;;;;;;;
2010-12-01T00:07:42.432Z;0;5.2060e+00;0;     0.189;   503.384;  20495.684; 0;  20489.502;  20495.684;  20742.738;  20239.355;141;   9.638; 288.682;;;  55.441; 274.641;  13.740;   0.048;  -0.178;   9.638;   9.628;   8.655;   4.241;   0.008;;;;;;;;;;;;;;;;;;
2010-12-01T00:07:58.432Z;0;5.4870e+00;0;     0.171;   503.384;  21041.377; 0;  21035.355;  21041.377;  21288.553;  20785.168;141;   9.640; 288.821;;;  55.580; 274.780;  13.741;   0.048;  -0.178;   9.640;   9.630;   8.656;   4.243;   0.008;;;;;;;;;;;;;;;;;;
2010-12-01T00:08:14.431Z;0;5.0610e+00;0;     0.180;   503.384;  20207.662; 0;  20201.391;  20207.662;  20454.650;  19951.268;141;   9.642; 288.961;;;  55.719; 274.919;  13.742;   0.048;  -0.178;   9.642;   9.632;   8.657;   4.246;   0.008;;;;;;;;;;;;;;;;;;
2010-12-01T00:08:30.431Z;0;5.0200e+00;0;     0.206;   503.384;  20125.941; 0;  20119.645;  20125.941;  20372.912;  19869.527;141;   9.644; 289.100;;;  55.857; 275.057;  13.742;   0.048;  -0.178;   9.644;   9.634;   8.658;   4.248;   0.008;;;;;;;;;;;;;;;;;;
2010-12-01T00:08:46.431Z;0;5.1530e+00;0;     0.180;   503.384;  20391.045; 0;  20384.830;  20391.045;  20638.076;  20134.691;141;   9.646; 289.240;;;  55.996; 275.196;  13.743;   0.048;  -0.178;   9.646;   9.637;   8.659;   4.251;   0.008;;;;;;;;;;;;;;;;;;
2010-12-01T00:09:02.431Z;0;5.3520e+00;0;     0.180;   503.384;  20779.889; 0;  20773.791;  20779.889;  21027.008;  20523.623;141;   9.648; 289.380;;;  56.135; 275.335;  13.744;   0.048;  -0.178;   9.648;   9.639;   8.661;   4.253;   0.008;;;;;;;;;;;;;;;;;;
2010-12-01T00:10:06.806Z;0;5.1570e+00;0;     0.187;   499.324;  20399.016; 0;  20392.904;  20399.016;  20644.094;  20144.770;141;   9.657; 289.941;;;  56.694; 275.894;  13.746;   0.048;  -0.178;   9.657;   9.647;   8.665;   4.263;   0.008;;;;;;;;;;;;;;;;;;
2010-12-01T00:10:38.430Z;0;4.5810e+00;0;     0.199;   499.324;  19227.467; 0;  19220.982;  19227.467;  19472.266;  18972.941;141;   9.661; 290.217;;;  56.968; 276.171;  13.748;   0.048;  -0.178;   9.661;   9.651;   8.667;   4.268;   0.008;;;;;;;;;;;;;;;;;;
2010-12-01T00:11:26.430Z;0;4.5570e+00;0;     0.091;   499.324;  19176.760; 0;  19170.258;  19176.760;  19421.545;  18922.221;141;   9.667; 290.636;;;  57.384; 276.593;  13.750;   0.048;  -0.178;   9.667;   9.657;   8.670;   4.276;   0.008;;;;;;;;;;;;;;;;;;
2010-12-01T00:11:58.430Z;0;4.9440e+00;0;     0.197;   486.640;  19973.727; 0;  19967.797;  19973.727;  20212.600;  19725.959;141;   9.671; 290.915;;;  57.662; 276.874;  13.751;   0.048;  -0.177;   9.671;   9.661;   8.672;   4.281;   0.008;;;;;;;;;;;;;;;;;;
2010-12-01T00:12:14.430Z;0;4.7090e+00;0;     0.206;   486.640;  19493.205; 0;  19487.129;  19493.205;  19731.969;  19245.328;141;   9.673; 291.055;;;  57.801; 277.015;  13.752;   0.048;  -0.177;   9.673;   9.663;   8.673;   4.283;   0.008;;;;;;;;;;;;;;;;;;
2010-12-01T00:12:30.430Z;0;4.6600e+00;0;     0.182;   486.640;  19390.604; 0;  19384.496;  19390.604;  19629.344;  19142.703;141;   9.675; 291.195;;;  57.940; 277.155;  13.753;   0.048;  -0.177;   9.675;   9.665;   8.674;   4.286;   0.008;;;;;;;;;;;;;;;;;;
2010-12-01T00:12:46.429Z;0;4.7480e+00;0;     0.189;   486.640;  19573.512; 0;  19567.461;  19573.512;  19812.295;  19325.654;141;   9.677; 291.334;;;  58.079; 277.296;  13.753;   0.048;  -0.177;   9.677;   9.667;   8.675;   4.288;   0.008;;;;;;;;;;;;;;;;;;
2010-12-01T00:13:02.429Z;0;4.7320e+00;0;     0.200;   486.640;  19540.207; 0;  19534.146;  19540.207;  19778.982;  19292.342;141;   9.679; 291.474;;;  58.217; 277.437;  13.754;   0.048;  -0.177;   9.679;   9.669;   8.676;   4.291;   0.008;;;;;;;;;;;;;;;;;;
2010-12-01T00:14:06.429Z;0;4.6500e+00;0;     0.206;   486.500;  19370.402; 0;  19364.293;  19370.402;  19609.070;  19122.570;141;   9.687; 292.033;;;  58.773; 278.002;  13.757;   0.048;  -0.177;   9.687;   9.677;   8.681;   4.301;   0.008;;;;;;;;;;;;;;;;;;
2010-12-01T00:14:54.429Z;0;4.7530e+00;0;     0.206;   486.500;  19583.025; 0;  19576.980;  19583.025;  19821.742;  19335.242;141;   9.693; 292.452;;;  59.190; 278.426;  13.759;   0.048;  -0.177;   9.694;   9.684;   8.684;   4.308;   0.008;;;;;;;;;;;;;;;;;;
2010-12-01T00:15:10.428Z;0;4.6310e+00;0;     0.205;   486.500;  19330.352; 0;  19324.229;  19330.352;  19569.010;  19082.510;141;   9.696; 292.592;;;  59.328; 278.568;  13.760;   0.048;  -0.177;   9.696;   9.686;   8.685;   4.311;   0.008;;;;;;;;;;;;;;;;;;
2010-12-01T00:15:26.428Z;0;4.6140e+00;0;     0.199;   486.500;  19294.721; 0;  19288.586;  19294.721;  19533.371;  19046.871;141;   9.698; 292.731;;;  59.467; 278.709;  13.760;   0.048;  -0.177;   9.698;   9.688;   8.686;   4.313;   0.008;;;;;;;;;;;;;;;;;;
2010-12-01T00:15:42.428Z;0;4.4950e+00;0;     0.184;   479.388;  19044.895; 0;  19038.859;  19044.895;  19280.062;  18800.676;141;   9.700; 292.871;;;  59.606; 278.851;  13.761;   0.048;  -0.177;   9.700;   9.690;   8.687;   4.316;   0.008;;;;;;;;;;;;;;;;;;
2010-12-01T00:17:18.428Z;0;4.3140e+00;0;     0.226;   479.388;  18657.559; 0;  18651.398;  18657.559;  18892.633;  18413.244;141;   9.712; 293.709;;;  60.440; 279.703;  13.765;   0.048;  -0.177;   9.712;   9.702;   8.693;   4.330;   0.008;;;;;;;;;;;;;;;;;;
2010-12-01T00:17:34.427Z;0;4.3130e+00;0;     0.204;   475.328;  18656.326; 0;  18650.270;  18656.326;  18889.447;  18414.121;141;   9.714; 293.849;;;  60.579; 279.845;  13.766;   0.048;  -0.177;   9.714;   9.704;   8.694;   4.333;   0.008;;;;;;;;;;;;;;;;;;
2010-12-01T00:18:06.427Z;0;4.5340e+00;0;     0.190;   475.328;  19126.453; 0;  19120.545;  19126.453;  19359.688;  18884.359;141;   9.718; 294.129;;;  60.857; 280.130;  13.767;   0.048;  -0.177;   9.718;   9.708;   8.696;   4.338;   0.008;;;;;;;;;;;;;;;;;;
2010-12-01T00:18:22.427Z;0;4.6760e+00;0;     0.205;   475.328;  19424.365; 0;  19418.549;  19424.365;  19657.666;  19182.340;141;   9.720; 294.268;;;  60.995; 280.272;  13.768;   0.048;  -0.177;   9.720;   9.710;   8.697;   4.340;   0.008;;;;;;;;;;;;;;;;;;
2010-12-01T00:18:54.427Z;0;4.5790e+00;0;     0.193;   475.328;  19220.828; 0;  19214.949;  19220.828;  19454.084;  18978.756;141;   9.724; 294.548;;;  61.273; 280.558;  13.769;   0.048;  -0.176;   9.724;   9.714;   8.699;   4.345;   0.008;;;;;;;;;;;;;;;;;;
2010-12-01T00:20:30.426Z;0;4.2760e+00;0;     0.224;   474.600;  18575.416; 0;  18569.352;  18575.416;  18808.168;  18333.568;141;   9.736; 295.387;;;  62.107; 281.410;  13.774;   0.048;  -0.176;   9.736;   9.726;   8.706;   4.360;   0.008;;;;;;;;;;;;;;;;;;
2010-12-01T00:21:50.426Z;0;4.1550e+00;0;     0.186;   472.220;  18311.178; 0;  18305.088;  18311.178;  18542.721;  18070.500;141;   9.747; 296.086;;;  62.802; 282.110;  13.777;   0.048;  -0.176;   9.747;   9.737;   8.711;   4.373;   0.008;;;;;;;;;;;;;;;;;;
2010-12-01T00:22:06.426Z;0;4.1160e+00;0;     0.201;   472.220;  18224.746; 0;  18218.627;  18224.746;  18456.268;  17984.047;141;   9.749; 296.225;;;  62.941; 282.249;  13.778;   0.048;  -0.176;   9.749;   9.739;   8.712;   4.375;   0.008;;;;;;;;;;;;;;;;;;
2010-12-01T00:22:22.425Z;0;4.8150e+00;0;     0.207;   472.220;  19709.723; 0;  19704.064;  19709.723;  19941.590;  19469.369;141;   9.751; 296.365;;;  63.080; 282.389;  13.778;   0.048;  -0.176;   9.751;   9.741;   8.713;   4.378;   0.008;;;;;;;;;;;;;;;;;;
2010-12-01T00:22:38.425Z;0;4.5850e+00;0;     0.196;   472.220;  19235.092; 0;  19229.295;  19235.092;  19466.854;  18994.635;141;   9.753; 296.505;;;  63.219; 282.529;  13.779;   0.047;  -0.176;   9.753;   9.743;   8.714;   4.380;   0.008;;;;;;;;;;;;;;;;;;
2010-12-01T00:23:10.425Z;0;5.1250e+00;0;     0.170;   472.220;  20334.143; 0;  20328.658;  20334.143;  20566.141;  20093.920;141;   9.757; 296.785;;;  63.497; 282.808;  13.780;   0.047;  -0.176;   9.757;   9.747;   8.716;   4.385;   0.008;;;;;;;;;;;;;;;;;;
2010-12-01T00:23:26.425Z;0;4.3290e+00;0;     0.151;   472.220;  18688.930; 0;  18682.963;  18688.930;  18920.564;  18448.346;141;   9.759; 296.924;;;  63.636; 282.948;  13.781;   0.047;  -0.176;   9.759;   9.749;   8.717;   4.388;   0.008;;;;;;;;;;;;;;;;;;
2010-12-01T00:23:58.425Z;0;5.0230e+00;0;     0.174;   475.048;  20132.590; 0;  20126.984;  20132.590;  20365.910;  19890.861;141;   9.763; 297.204;;;  63.914; 283.226;  13.783;   0.047;  -0.176;   9.763;   9.753;   8.719;   4.393;   0.008;;;;;;;;;;;;;;;;;;
2010-12-01T00:24:14.425Z;0;5.4310e+00;0;     0.181;   475.048;  20932.586; 0;  20927.195;  20932.586;  21166.066;  20691.020;141;   9.765; 297.344;;;  64.053; 283.366;  13.783;   0.047;  -0.176;   9.765;   9.755;   8.720;   4.395;   0.008;;;;;;;;;;;;;;;;;;
2010-12-01T00:24:30.425Z;0;5.0720e+00;0;     0.192;   475.048;  20229.484; 0;  20223.906;  20229.484;  20462.824;  19987.777;141;   9.767; 297.484;;;  64.192; 283.505;  13.784;   0.047;  -0.176;   9.767;   9.757;   8.721;   4.398;   0.008;;;;;;;;;;;;;;;;;;
2010-12-01T00:25:18.424Z;0;4.6350e+00;0;     0.177;   475.048;  19339.146; 0;  19333.311;  19339.146;  19572.295;  19097.246;141;   9.773; 297.903;;;  64.610; 283.922;  13.786;   0.047;  -0.176;   9.773;   9.763;   8.724;   4.405;   0.008;;;;;;;;;;;;;;;;;;
2010-12-01T00:25:34.424Z;0;5.2000e+00;0;     0.195;   471.660;  20482.422; 0;  20476.990;  20482.422;  20714.178;  20242.518;141;   9.775; 298.043;;;  64.749; 284.061;  13.787;   0.047;  -0.176;   9.775;   9.765;   8.725;   4.408;   0.008;;;;;;;;;;;;;;;;;;
2010-12-01T00:25:50.424Z;0;5.1410e+00;0;     0.176;   471.660;  20366.617; 0;  20361.154;  20366.617;  20598.352;  20126.691;141;   9.777; 298.183;;;  64.888; 284.200;  13.787;   0.047;  -0.176;   9.777;   9.767;   8.726;   4.410;   0.008;;;;;;;;;;;;;;;;;;
2010-12-01T00:26:06.424Z;0;5.2100e+00;0;     0.200;   471.660;  20502.594; 0;  20497.168;  20502.594;  20734.354;  20262.695;141;   9.779; 298.323;;;  65.027; 284.339;  13.788;   0.047;  -0.176;   9.779;   9.769;   8.727;   4.413;   0.008;;;;;;;;;;;;;;;;;;
2010-12-01T00:26:22.424Z;0;5.4710e+00;0;     0.188;   471.660;  21009.365; 0;  21004.070;  21009.365;  21241.225;  20769.564;141;   9.781; 298.463;;;  65.166; 284.477;  13.789;   0.047;  -0.175;   9.781;   9.771;   8.728;   4.415;   0.008;;;;;;;;;;;;;;;;;;
2010-12-01T00:26:38.424Z;0;4.9750e+00;0;     0.186;   471.660;  20035.012; 0;  20029.459;  20035.012;  20266.678;  19795.018;141;   9.783; 298.603;;;  65.305; 284.616;  13.789;   0.047;  -0.175;   9.783;   9.773;   8.729;   4.417;   0.008;;;;;;;;;;;;;;;;;;
2010-12-01T00:26:54.423Z;0;4.7000e+00;0;     0.193;   471.660;  19474.539; 0;  19468.826;  19474.539;  19706.084;  19234.426;141;   9.785; 298.743;;;  65.444; 284.755;  13.790;   0.047;  -0.175;   9.785;   9.775;   8.730;   4.420;   0.008;;;;;;;;;;;;;;;;;;
2010-12-01T00:29:18.422Z;0;3.9210e+00;0;     0.186;   462.896;  17786.814; 0;  17780.791;  17786.814;  18013.744;  17550.848;141;   9.804; 300.002;;;  66.696; 285.999;  13.796;   0.047;  -0.175;   9.804;   9.794;   8.740;   4.442;   0.008;;;;;;;;;;;;;;;;;;
2010-12-01T00:29:34.422Z;0;3.9290e+00;0;     0.211;   469.700;  17805.223; 0;  17799.025;  17805.223;  18035.426;  17565.725;141;   9.806; 300.142;;;  66.835; 286.137;  13.797;   0.047;  -0.175;   9.806;   9.796;   8.741;   4.445;   0.008;;;;;;;;;;;;;;;;;;
2010-12-01T00:30:06.797Z;0;3.8570e+00;0;     0.186;   469.700;  17642.729; 0;  17636.475;  17642.729;  17872.889;  17403.189;141;   9.810; 300.425;;;  67.117; 286.417;  13.798;   0.047;  -0.175;   9.810;   9.800;   8.743;   4.450;   0.008;;;;;;;;;;;;;;;;;;
2010-12-01T00:30:54.422Z;0;5.1930e+00;0;     0.175;   469.700;  20469.518; 0;  20464.127;  20469.518;  20700.326;  20230.625;141;   9.816; 300.842;;;  67.536; 286.836;  13.800;   0.047;  -0.175;   9.816;   9.806;   8.746;   4.457;   0.008;;;;;;;;;;;;;;;;;;
2010-12-01T00:31:10.422Z;0;5.0380e+00;0;     0.185;   469.700;  20161.676; 0;  20156.203;  20161.676;  20392.422;  19922.723;141;   9.818; 300.982;;;  67.676; 286.976;  13.801;   0.047;  -0.175;   9.818;   9.808;   8.747;   4.460;   0.008;;;;;;;;;;;;;;;;;;
2010-12-01T00:31:26.422Z;0;4.2690e+00;0;     0.196;   469.700;  18559.186; 0;  18553.240;  18559.186;  18789.578;  18319.877;141;   9.820; 301.122;;;  67.817; 287.117;  13.802;   0.047;  -0.175;   9.820;   9.810;   8.748;   4.462;   0.008;;;;;;;;;;;;;;;;;;
2010-12-01T00:31:42.421Z;0;4.2780e+00;0;     0.217;   467.432;  18580.527; 0;  18574.646;  18580.527;  18809.834;  18342.400;141;   9.822; 301.262;;;  67.958; 287.258;  13.802;   0.047;  -0.175;   9.822;   9.812;   8.749;   4.465;   0.008;;;;;;;;;;;;;;;;;;
2010-12-01T00:31:58.421Z;0;4.3000e+00;0;     0.187;   467.432;  18627.852; 0;  18621.986;  18627.852;  18857.168;  18389.736;141;   9.824; 301.401;;;  68.099; 287.399;  13.803;   0.047;  -0.175;   9.824;   9.814;   8.750;   4.467;   0.008;;;;;;;;;;;;;;;;;;
2010-12-01T00:32:14.421Z;0;4.3840e+00;0;     0.198;   467.432;  18808.643; 0;  18802.834;  18808.643;  19038.002;  18570.570;141;   9.826; 301.541;;;  68.240; 287.540;  13.804;   0.047;  -0.175;   9.826;   9.816;   8.751;   4.470;   0.008;;;;;;;;;;;;;;;;;;
2010-12-01T00:32:30.421Z;0;4.9030e+00;0;     0.189;   467.432;  19890.234; 0;  19884.740;  19890.234;  20119.830;  19652.398;141;   9.828; 301.681;;;  68.381; 287.681;  13.804;   0.047;  -0.175;   9.828;   9.818;   8.752;   4.472;   0.008;;;;;;;;;;;;;;;;;;
2010-12-01T00:32:46.421Z;0;5.1780e+00;0;     0.181;   467.432;  20438.779; 0;  20433.434;  20438.779;  20668.486;  20201.055;141;   9.830; 301.821;;;  68.523; 287.823;  13.805;   0.047;  -0.175;   9.830;   9.820;   8.753;   4.475;   0.008;;;;;;;;;;;;;;;;;;
2010-12-01T00:33:02.421Z;0;5.1320e+00;0;     0.178;   467.432;  20349.480; 0;  20344.111;  20349.480;  20579.170;  20111.738;141;   9.832; 301.961;;;  68.664; 287.964;  13.806;   0.047;  -0.175;   9.832;   9.822;   8.754;   4.477;   0.008;;;;;;;;;;;;;;;;;;
2010-12-01T00:33:18.421Z;0;5.0030e+00;0;     0.108;   467.432;  20090.676; 0;  20085.238;  20090.676;  20320.312;  19852.881;141;   9.834; 302.101;;;  68.805; 288.105;  13.806;   0.047;  -0.175;   9.834;   9.824;   8.755;   4.479;   0.008;;;;;;;;;;;;;;;;;;
2010-12-01T00:33:34.421Z;0;5.4950e+00;0;     0.179;   463.232;  21056.107; 0;  21051.012;  21056.107;  21283.902;  20820.670;141;   9.836; 302.241;;;  68.947; 288.247;  13.807;   0.047;  -0.175;   9.836;   9.826;   8.756;   4.482;   0.008;;;;;;;;;;;;;;;;;;
2010-12-01T00:33:50.421Z;0;5.2160e+00;0;     0.185;   463.232;  20515.162; 0;  20509.932;  20515.162;  20742.855;  20279.623;141;   9.838; 302.381;;;  69.088; 288.388;  13.808;   0.047;  -0.174;   9.838;   9.828;   8.757;   4.484;   0.008;;;;;;;;;;;;;;;;;;
2010-12-01T00:34:06.420Z;0;5.4380e+00;0;     0.174;   463.232;  20945.092; 0;  20939.969;  20945.092;  21172.865;  20709.633;141;   9.840; 302.521;;;  69.230; 288.530;  13.808;   0.047;  -0.174;   9.840;   9.830;   8.758;   4.487;   0.008;;;;;;;;;;;;;;;;;;
2010-12-01T00:34:22.420Z;0;5.1370e+00;0;     0.172;   463.232;  20358.891; 0;  20353.619;  20358.891;  20586.555;  20123.322;141;   9.842; 302.661;;;  69.371; 288.671;  13.809;   0.047;  -0.174;   9.842;   9.832;   8.759;   4.489;   0.008;;;;;;;;;;;;;;;;;;
2010-12-01T00:34:38.420Z;0;5.1480e+00;0;     0.169;   463.232;  20380.383; 0;  20375.117;  20380.383;  20608.051;  20144.818;141;   9.844; 302.801;;;  69.513; 288.813;  13.810;   0.047;  -0.174;   9.844;   9.834;   8.760;   4.492;   0.008;;;;;;;;;;;;;;;;;;
2010-12-01T00:34:54.420Z;0;5.1100e+00;0;     0.188;   463.232;  20303.887; 0;  20298.602;  20303.887;  20531.539;  20068.307;141;   9.846; 302.941;;;  69.655; 288.955;  13.810;   0.047;  -0.174;   9.846;   9.836;   8.761;   4.494;   0.008;;;;;;;;;;;;;;;;;;
2010-12-01T00:35:10.420Z;0;5.0380e+00;0;     0.164;   463.232;  20162.164; 0;  20156.842;  20162.164;  20389.789;  19926.557;141;   9.849; 303.081;;;  69.797; 289.097;  13.811;   0.047;  -0.174;   9.849;   9.838;   8.762;   4.497;   0.008;;;;;;;;;;;;;;;;;;
2010-12-01T00:35:26.420Z;0;5.5060e+00;0;     0.157;   463.232;  21075.785; 0;  21070.693;  21075.785;  21303.582;  20840.352;141;   9.851; 303.221;;;  69.939; 289.239;  13.812;   0.047;  -0.174;   9.851;   9.840;   8.763;   4.499;   0.008;;;;;;;;;;;;;;;;;;
2010-12-01T00:35:42.420Z;0;5.1440e+00;0;     0.188;   460.740;  20372.230; 0;  20367.020;  20372.230;  20598.693;  20137.953;141;   9.853; 303.362;;;  70.081; 289.381;  13.812;   0.047;  -0.174;   9.853;   9.842;   8.764;   4.502;   0.008;;;;;;;;;;;;;;;;;;
2010-12-01T00:35:58.420Z;0;5.0630e+00;0;     0.171;   460.740;  20210.680; 0;  20205.428;  20210.680;  20437.111;  19976.371;141;   9.855; 303.502;;;  70.223; 289.523;  13.813;   0.047;  -0.174;   9.855;   9.845;   8.765;   4.504;   0.008;;;;;;;;;;;;;;;;;;
2010-12-01T00:36:14.420Z;0;4.9690e+00;0;     0.225;   460.740;  20023.088; 0;  20017.787;  20023.088;  20249.482;  19788.742;141;   9.857; 303.642;;;  70.365; 289.665;  13.814;   0.047;  -0.174;   9.857;   9.847;   8.766;   4.507;   0.008;;;;;;;;;;;;;;;;;;
2010-12-01T00:36:30.419Z;0;4.8710e+00;0;     0.214;   460.740;  19825.516; 0;  19820.162;  19825.516;  20051.869;  19591.131;141;   9.859; 303.782;;;  70.507; 289.807;  13.814;   0.047;  -0.174;   9.859;   9.849;   8.767;   4.509;   0.008;;;;;;;;;;;;;;;;;;